AO-07 1 07530U 74089B 14248.18009442 -.00000046 00000-0 -14851-4 0 536 2 07530 101.4812 227.4022 0012244 137.0918 288.0846 12.53607045821544 FO-29 1 24278U 96046B 14249.50932169 -.00000034 00000-0 -21644-5 0 4573 2 24278 098.5145 252.1456 0351529 086.7012 062.9214 13.53029028891668 SO-33 1 25509U 98061B 14249.77649247 .00000618 00000-0 11091-3 0 8293 2 25509 031.4325 058.0746 0349174 109.2568 007.6328 14.29593290828839 RS-22 1 27939U 03042A 14249.56454368 .00000839 00000-0 16369-3 0 8223 2 27939 097.8156 059.6997 0012441 205.9952 154.0634 14.65305542584642 HO-68 1 36122U 09072B 14249.74090873 -.00000043 00000-0 00000 0 0 9122 2 36122 100.2404 299.1021 0007674 052.3794 307.8003 13.16317742227169 AO-73 1 39444U 13066AE 14249.23752092 .00001471 00000-0 20220-3 0 2388 2 39444 097.7651 317.1146 0061424 341.2745 018.6184 14.78547989 41440 EO-79 1 40025U 14033R 14249.66587790 .00001598 00000-0 19167-3 0 2173 2 40025 097.9754 144.4456 0014668 036.2602 323.9624 14.85394337 11688 UO-11 1 14781U 84021B 14249.74696123 .00000593 00000-0 81857-4 0 5901 2 14781 097.8438 308.2529 0007260 273.0502 086.9880 14.81712863640049 AO-16 1 20439U 90005D 14249.42658910 .00000118 00000-0 59742-4 0 1057 2 20439 098.5109 185.2477 0009633 279.4686 218.5246 14.32382457286114 LO-19 1 20442U 90005G 14249.37435918 .00000106 00000-0 55007-4 0 412 2 20442 098.4819 185.6066 0010612 267.1052 092.8918 14.32582653286303 AO-27 1 22825U 93061C 14249.45637057 .00000085 00000-0 50174-4 0 7526 2 22825 098.6690 195.1284 0009388 064.8331 072.7915 14.29741406 92394 IO-26 1 22826U 93061D 14249.82767416 .00000100 00000-0 55993-4 0 5105 2 22826 098.6631 195.7046 0009783 056.5115 303.7000 14.30044180 92589 GO-32 1 25397U 98043D 14249.50375711 .00000033 00000-0 33044-4 0 4325 2 25397 098.4778 204.4924 0002422 087.2580 050.7781 14.23458386839435 NO-44 1 26931U 01043C 14249.79836296 .00000093 00000-0 67800-4 0 6870 2 26931 067.0523 188.0019 0007355 278.1374 081.8893 14.30144546675271 SO-50 1 27607U 02058C 14249.50938234 .00000463 00000-0 89662-4 0 4927 2 27607 064.5579 344.4225 0057696 348.4925 011.4853 14.73886772629464 CO-55 1 27844U 03031E 14249.51617368 .00000187 00000-0 10534-3 0 71 2 27844 098.6993 257.1206 0010331 046.9404 104.4903 14.21549602580131 CO-57 1 27848U 03031J 14249.53310694 .00000144 00000-0 86237-4 0 9480 2 27848 098.7088 256.8926 0010328 053.3682 067.6139 14.21231020580056 AO-51 1 28375U 04025K 14249.42455250 .00000175 00000-0 64686-4 0 9248 2 28375 098.2572 193.5941 0084398 106.8064 254.2405 14.41419126535614 CP3 1 31129U 07012N 14249.66731439 .00000788 00000-0 18186-3 0 8365 2 31129 097.9429 223.5619 0099752 116.9302 298.1537 14.54812666391887 CO-65 1 32785U 08021C 14249.75254720 .00001052 00000-0 12783-3 0 452 2 32785 097.6909 298.3430 0012225 279.7393 202.6093 14.85500476344135 PRISM 1 33493U 09002B 14249.82568836 .00003597 00000-0 37942-3 0 2613 2 33493 098.2547 068.9948 0017477 173.4429 186.6984 14.89882171304333 SOHLA-1 1 33496U 09002E 14249.41033255 .00000364 00000-0 67847-4 0 4454 2 33496 098.1799 010.5843 0005788 356.3787 044.4698 14.70876475301455 TISAT-1 1 36799U 10035E 14249.83919738 .00002372 00000-0 27748-3 0 5228 2 36799 098.0173 342.4649 0014832 059.0209 301.2457 14.85986766224841 STUDSAT 1 36801U 10035G 14249.47348329 .00012321 00000-0 10448-2 0 8815 2 36801 098.0406 351.8062 0009028 032.8993 097.5222 14.98070895225293 ALMASAT-1 1 38078U 12006B 14249.08873210 .00027301 33287-5 55432-3 0 1326 2 38078 069.4696 223.5534 0581806 284.0881 069.6282 14.53798177133373 XATCOBEO 1 38082U 12006F 14243.34478676 .13583328 43697-5 37939-3 0 5637 2 38082 069.3815 097.0364 0033293 225.1799 135.4582 16.41261006136239 CUBEBUG-1 1 39153U 13018D 14249.74388021 .00001270 00000-0 18337-3 0 4470 2 39153 098.0388 329.8723 0018990 087.5359 272.8029 14.77890676 73608 ESTCUBE-1 1 39161U 13021C 14249.83244555 .00000949 00000-0 16589-3 0 4442 2 39161 098.0935 330.1187 0010987 130.6759 229.5372 14.70135628 71594 DUCHIFAT-1 1 40021U 14033M 14249.65916481 .00002172 00000-0 25718-3 0 2247 2 40021 097.9744 144.4704 0015847 037.3457 322.8872 14.85558428 11674 NANOSATCBR1 1 40024U 14033Q 14249.66445780 .00001960 00000-0 23338-3 0 2149 2 40024 097.9747 144.4471 0014645 036.6431 323.5801 14.85442626 11672 DTUSAT-2 1 40030U 14033W 14249.68536508 .00001637 00000-0 19796-3 0 2118 2 40030 097.9709 144.4084 0013718 031.7364 328.4698 14.85025341 11688 ANTELSAT 1 40034U 14033AA 14249.66897083 .00001361 00000-0 22217-3 0 2181 2 40034 097.9686 142.6994 0060956 308.1503 051.4235 14.71346078 11585 MET-2/21 1 22782U 93055A 14249.77437045 -.00000001 00000-0 -14825-4 0 1539 2 22782 082.5467 108.5788 0022728 039.3881 006.8980 13.83743081 61405 OKEAN-4 1 23317U 94066A 14249.45781594 .00001049 00000-0 11787-3 0 6330 2 23317 082.5418 351.7255 0020872 186.0844 302.0464 14.85676077 75174 NOAA-14 1 23455U 94089A 14249.39219681 .00000036 00000-0 42078-4 0 8878 2 23455 098.7750 331.3744 0010057 163.2362 329.7668 14.13984431 15429 NOAA-15 1 25338U 98030A 14249.54788501 .00000103 00000-0 62610-4 0 3255 2 25338 098.7583 243.2708 0009408 270.8806 196.8247 14.25462940848432 RESURS 1 25394U 98043A 14249.51161832 -.00000040 00000-0 66301-6 0 7416 2 25394 098.4226 210.4946 0002090 060.2309 072.5696 14.24397223839892 FENGYUN1 1 25730U 99025A 14249.48824002 .00001029 00000-0 58474-3 0 2312 2 25730 098.9175 210.1050 0020567 241.2369 262.9415 14.12039814788997 OKEAN-0 1 25860U 99039A 14249.50754057 .00000531 00000-0 85746-4 0 3452 2 25860 098.0525 212.9337 0001887 117.4771 019.9909 14.75369176814145 NOAA-16 1 26536U 00055A 14249.37020733 .00000087 00000-0 70837-4 0 8215 2 26536 098.9828 310.0556 0009617 317.8836 042.1595 14.13034244719578 NOAA-17 1 27453U 02032A 14249.51649024 .00000086 00000-0 54348-4 0 7157 2 27453 098.3190 244.9649 0010476 297.2190 062.7922 14.24771676634263 NOAA-18 1 28654U 05018A 14249.52661909 .00000136 00000-0 99377-4 0 2292 2 28654 099.1569 230.6921 0014881 039.8871 067.0193 14.12057321479043 NOAA-19 1 33591U 09005A 14249.50279853 .00000117 00000-0 88725-4 0 3698 2 33591 098.9510 194.3202 0012998 248.5772 219.5614 14.11757220287465 HUBBLE 1 20580U 90037B 14248.41125505 .00001661 00000-0 10032-3 0 1047 2 20580 028.4698 229.6615 0003281 063.1510 068.5551 15.05685195136820 ISS 1 25544U 98067A 14249.84848016 .00012367 00000-0 22207-3 0 388 2 25544 051.6456 054.8389 0003634 083.9354 062.3783 15.50285931903992 CO-58 1 28895U 05043F 14249.52060168 .00000595 00000-0 12723-3 0 8606 2 28895 097.8298 087.1531 0018773 113.1377 247.1806 14.61999301472139 FALCON 1 30776U 07006E 14249.46880362 .00008538 00000-0 42210-3 0 9472 2 30776 035.4300 330.1867 0002127 279.0341 151.1465 15.17179932413080 MAST 1 31126U 07012K 14249.48133608 .00000588 00000-0 13770-3 0 1350 2 31126 097.9232 226.1747 0093520 100.8251 015.9018 14.55364406392211 CAPE1 1 31130U 07012P 14249.66201244 .00000678 00000-0 15875-3 0 1412 2 31130 097.9443 223.1029 0100286 118.3848 242.7504 14.54555468391650 COMPASS 1 32787U 08021E 14249.39474224 .00002958 00000-0 32575-3 0 285 2 32787 097.6941 300.5846 0012223 271.5881 088.3936 14.88246000344262 AAUSAT2 1 32788U 08021F 14249.76256084 .00002607 00000-0 28259-3 0 150 2 32788 097.6952 302.0297 0011643 268.1005 091.8879 14.88996485344384 DO-64 1 32789U 08021G 14249.48325294 .00006655 00000-0 62695-3 0 575 2 32789 097.7154 309.0623 0010535 249.8604 235.2027 14.94109881344630 CO-66 1 32791U 08021J 14249.42612400 .00001540 00000-0 17837-3 0 105 2 32791 097.6931 299.2076 0012885 275.4928 084.4818 14.86843928344125 RS-30 1 32953U 08025A 14249.76352720 .00000010 00000-0 00000 0 0 2622 2 32953 082.5087 150.5016 0019135 342.4626 017.5815 12.43050205285394 METEOR-M 1 35865U 09049A 14249.71046043 -.00000034 00000-0 39540-5 0 8672 2 35865 098.5417 294.6195 0001725 207.0035 153.1041 14.21927917257924 RS-38 1 35869U 09049E 14249.75149181 .00000044 00000-0 38899-4 0 7761 2 35869 098.5348 294.4245 0004348 203.9152 268.4186 14.22224311257967 JUGNU 1 37839U 11058B 14249.77681343 .00000392 00000-0 67216-4 0 6867 2 37839 019.9617 120.4353 0018986 163.2636 263.8986 14.12331883150105 SRMSAT 1 37841U 11058D 14249.04977536 .00000377 00000-0 62782-4 0 6879 2 37841 019.9716 145.7886 0011997 092.3570 034.8501 14.10369386149781 RAX-2 1 37853U 11061D 14246.46374243 .00005349 00000-0 36591-3 0 9016 2 37853 101.7074 313.4726 0214620 190.2077 294.9792 14.90101173154318 AUBIESAT 1 37854U 11061E 14249.24873873 .00009470 00000-0 61936-3 0 8861 2 37854 101.7118 319.7356 0212037 178.9114 224.3800 14.91548306154794 HRBE 1 37855U 11061F 14249.40231494 .00010280 00000-0 67929-3 0 9025 2 37855 101.7117 319.1985 0214536 179.9092 180.2187 14.90806250154778 RS-39 1 38051U 11062C 14249.80255410 .00207561 00000-0 13542-2 0 8876 2 38051 051.6218 168.4133 0007452 156.4384 301.2736 15.74672625146904 E-STAR 1 38079U 12006C 14249.81115867 .00077850 48926-5 76871-3 0 9604 2 38079 069.4539 134.6013 0331641 236.0707 120.8639 15.19747774135815 GOLIAT 1 38085U 12006J 14249.83493738 .00066413 44797-5 70071-3 0 3323 2 38085 069.4579 143.6983 0359229 240.5074 239.1194 15.12899398135588 HORYU-2 1 38340U 12025D 14249.35247871 .00001509 00000-0 24451-3 0 9551 2 38340 098.2696 207.9657 0011164 281.7074 078.2874 14.72734501123745 RS-40 1 38735U 12041C 14248.64215434 .00000024 00000-0 10000-3 0 6663 2 38735 082.4723 237.3695 0018454 079.9373 280.3780 12.42561085 95577 PROITERES 1 38756U 12047B 14249.73096911 .00000636 00000-0 10218-3 0 1823 2 38756 098.2275 339.3593 0013778 122.2654 237.9891 14.75068388107206 BEESAT-3 1 39134U 13015E 14249.48459063 .00005668 00000-0 39440-3 0 6927 2 39134 064.8678 241.0951 0033481 293.2295 066.5293 15.05992423 75906 BEESAT-2 1 39136U 13015G 14249.38466711 .00004779 00000-0 34084-3 0 6769 2 39136 064.8680 242.1511 0033634 294.1176 065.6424 15.05286000 75872 LO-75 1 39382U 13064C 14249.57998816 .00142855 00000-0 18565-2 0 3932 2 39382 040.4923 320.0151 0020957 102.7017 257.6235 15.57255466 44680 ZACUBE-1 1 39417U 13066B 14249.19733852 .00000900 00000-0 12712-3 0 3942 2 39417 097.7649 317.0149 0061937 341.3411 018.5659 14.78302371 42664 TRITON-1 1 39427U 13066M 14248.68716925 .00000924 00000-0 16221-3 0 2458 2 39427 097.7545 310.7023 0118157 354.9479 005.0503 14.65558962 42183 DELFIN3XT 1 39428U 13066N 14249.40645780 .00001616 00000-0 28527-3 0 2507 2 39428 097.7536 310.3689 0127905 355.3645 004.6340 14.63569574 42216 GOMX-1 1 39430U 13066Q 14249.76127960 .00000861 00000-0 17147-3 0 7832 2 39430 097.7503 307.8709 0156441 002.0076 358.1682 14.56994073 42098 MO-76 1 39436U 13066W 14249.17847713 .00010118 00000-0 10073-2 0 3188 2 39436 097.7735 321.6024 0023830 344.1187 015.9295 14.91605827 42940 LO-74 1 39440U 13066AA 14249.23216114 .00001019 00000-0 15695-3 0 2461 2 39440 097.7621 314.7389 0084183 345.0833 014.7871 14.73238957 42518 PUCPSAT-1 1 39442U 13066AC 14249.49690563 .00001844 00000-0 21313-3 0 2454 2 39442 097.7737 320.8996 0034268 340.7827 019.2090 14.86377513 41703 SHINAISAT 1 39572U 14009A 14249.46266240 .00072295 00000-0 42899-3 0 2768 2 39572 065.0060 119.3287 0020511 277.7464 082.1460 15.77321894 29898 TEIKYOSAT 1 39576U 14009E 14249.80348797 .00123939 00000-0 51557-3 0 2895 2 39576 065.0036 114.7331 0020280 280.3155 079.5721 15.84831991 30012 CO-77 1 39577U 14009F 14244.78324653 .10543803 76292-5 32273-3 0 3795 2 39577 064.9920 123.7668 0014904 269.7208 091.1897 16.43552757 29380 SPROUT 1 39770U 14029E 14249.32124086 .00001152 00000-0 14912-3 0 1191 2 39770 097.8721 345.2379 0011235 054.5752 305.6516 14.82736876 15560 POPSAT-HIP1 1 40028U 14033U 14249.80910324 .00001557 00000-0 18762-3 0 2316 2 40028 097.9764 144.6055 0016207 032.9540 327.2689 14.85232103 11695 EO-80 1 40032U 14033Y 14249.75386950 .00001609 00000-0 19479-3 0 2221 2 40032 097.9731 144.4828 0013867 028.3583 331.8399 14.85004910 11697 VELOX-1 1 40057U 14034E 14249.78456156 .00001550 00000-0 24303-3 0 2157 2 40057 098.2463 318.1381 0013228 066.9462 293.3124 14.74111857 10109 DAURIA DX 1 1 40071U 14037C 14249.78405222 .00000694 00000-0 10034-3 0 1865 2 40071 098.3968 304.0987 0010274 071.2353 288.9963 14.79568615 8873 UKUBE-1 1 40074U 14037F 14249.81583411 .00001495 00000-0 20282-3 0 1887 2 40074 098.3974 304.2254 0006598 079.4199 280.7741 14.80493563 8880 CHASQUI-1 1 40117U 98067ET 14249.69939872 .00046280 00000-0 76448-3 0 708 2 40117 051.6474 055.4686 0003708 098.5766 346.8456 15.51769731 2941 /EX